N624JX KRDU-KSRQ

Flight info

Callsign N624JX
Flight time N/A
Altitude 43000
Route HOOKZ5 DAWTS MRPIT Q409 PUPYY KYYUU LUBBR4
Aircraft C750/M-SBDE3FGHRWXY/S

Departure

Time N/A
Airport Raleigh-Durham International Airport (KRDU)

Arrival

Time 2026-05-03 20:55
Airport Sarasota Bradenton International Airport (KSRQ)
Time Latitude Longitude Altitude Speed Heading
2026-05-03 20:15 31.10118 -81.97974 43136 ft 446 kts 212°
2026-05-03 20:15 31.04371 -82.00698 43139 ft 446 kts 212°
2026-05-03 20:16 30.98660 -82.03407 43120 ft 445 kts 212°
2026-05-03 20:16 30.92880 -82.06138 43152 ft 445 kts 212°
2026-05-03 20:17 30.87136 -82.08854 43160 ft 446 kts 212°
2026-05-03 20:17 30.81393 -82.11562 43158 ft 445 kts 212°
2026-05-03 20:18 30.75687 -82.14252 43158 ft 445 kts 212°
2026-05-03 20:18 30.69947 -82.16953 43166 ft 445 kts 212°
2026-05-03 20:19 30.64074 -82.19389 43159 ft 456 kts 206°
2026-05-03 20:19 30.57691 -82.20566 43161 ft 471 kts 197°
2026-05-03 20:20 30.51160 -82.21303 43173 ft 471 kts 198°
2026-05-03 20:20 30.44637 -82.22047 43173 ft 471 kts 197°
2026-05-03 20:21 30.38111 -82.22779 43172 ft 471 kts 197°
2026-05-03 20:21 30.31588 -82.23520 43174 ft 471 kts 197°
2026-05-03 20:22 30.25064 -82.24252 43172 ft 471 kts 197°
2026-05-03 20:22 30.18541 -82.24984 43170 ft 472 kts 197°
2026-05-03 20:23 30.11835 -82.24797 43153 ft 494 kts 186°
2026-05-03 20:23 30.05013 -82.23898 43161 ft 493 kts 186°
2026-05-03 20:24 29.98197 -82.23035 43152 ft 493 kts 186°
2026-05-03 20:24 29.91374 -82.22144 43140 ft 493 kts 186°
2026-05-03 20:25 29.84562 -82.21275 43125 ft 493 kts 186°
2026-05-03 20:25 29.77744 -82.20395 43121 ft 493 kts 186°
2026-05-03 20:26 29.70925 -82.19523 43117 ft 493 kts 186°
2026-05-03 20:26 29.64109 -82.18648 43117 ft 493 kts 186°
2026-05-03 20:27 29.57293 -82.17776 43122 ft 491 kts 186°
2026-05-03 20:27 29.50483 -82.16922 43121 ft 492 kts 186°
2026-05-03 20:28 29.43674 -82.16062 43116 ft 492 kts 186°
2026-05-03 20:28 29.36859 -82.15206 43110 ft 492 kts 186°
2026-05-03 20:29 29.30053 -82.14349 42989 ft 487 kts 186°
2026-05-03 20:29 29.26739 -82.13918 42393 ft 471 kts 186°
2026-05-03 20:29 29.23534 -82.13510 41795 ft 456 kts 186°
2026-05-03 20:29 29.20434 -82.13130 41222 ft 441 kts 187°
2026-05-03 20:30 29.17432 -82.12774 40659 ft 425 kts 188°
2026-05-03 20:30 29.14560 -82.12672 40130 ft 405 kts 192°
2026-05-03 20:30 29.11762 -82.12630 39609 ft 399 kts 192°
2026-05-03 20:30 29.08995 -82.12565 39087 ft 397 kts 191°
2026-05-03 20:31 29.06237 -82.12501 38519 ft 396 kts 191°
2026-05-03 20:31 29.03477 -82.12448 38000 ft 399 kts 191°
2026-05-03 20:31 29.00680 -82.12398 37450 ft 404 kts 191°
2026-05-03 20:31 28.97845 -82.12338 36931 ft 410 kts 191°
2026-05-03 20:32 28.94984 -82.12272 36389 ft 412 kts 191°
2026-05-03 20:32 28.92103 -82.12210 35844 ft 416 kts 191°
2026-05-03 20:32 28.89202 -82.12152 35291 ft 419 kts 191°
2026-05-03 20:32 28.86276 -82.12093 34737 ft 422 kts 191°
2026-05-03 20:33 28.83329 -82.12030 34181 ft 426 kts 191°
2026-05-03 20:33 28.80363 -82.11966 33718 ft 428 kts 191°
2026-05-03 20:33 28.77378 -82.11905 33152 ft 430 kts 190°
2026-05-03 20:33 28.74383 -82.11842 32588 ft 431 kts 189°
2026-05-03 20:34 28.71419 -82.11781 32011 ft 433 kts 189°
2026-05-03 20:34 28.68396 -82.11713 31336 ft 437 kts 187°
2026-05-03 20:34 28.65333 -82.11364 30542 ft 446 kts 181°
2026-05-03 20:34 28.62278 -82.10894 29683 ft 440 kts 180°
2026-05-03 20:35 28.59268 -82.10446 28779 ft 433 kts 181°
2026-05-03 20:35 28.56291 -82.10038 27893 ft 428 kts 181°
2026-05-03 20:35 28.53307 -82.09625 27035 ft 425 kts 181°
2026-05-03 20:35 28.50390 -82.09201 26206 ft 421 kts 180°
2026-05-03 20:36 28.47536 -82.08680 25399 ft 422 kts 176°
2026-05-03 20:36 28.44675 -82.07942 24617 ft 421 kts 175°
2026-05-03 20:36 28.41833 -82.07177 23833 ft 418 kts 174°
2026-05-03 20:36 28.39007 -82.06452 22976 ft 415 kts 175°
2026-05-03 20:37 28.36203 -82.05754 22105 ft 410 kts 175°
2026-05-03 20:37 28.33398 -82.05042 21250 ft 406 kts 175°
2026-05-03 20:37 28.30659 -82.04332 20428 ft 401 kts 174°
2026-05-03 20:37 28.27949 -82.03798 19615 ft 392 kts 180°
2026-05-03 20:38 28.25256 -82.03420 18837 ft 388 kts 180°
2026-05-03 20:38 28.22579 -82.03030 18024 ft 385 kts 179°
2026-05-03 20:38 28.19947 -82.02622 17156 ft 380 kts 179°
2026-05-03 20:38 28.17349 -82.02223 16308 ft 374 kts 179°
2026-05-03 20:39 28.14795 -82.01848 15630 ft 366 kts 179°
2026-05-03 20:39 28.12295 -82.01880 14933 ft 355 kts 193°
2026-05-03 20:39 28.09959 -82.02650 14278 ft 346 kts 207°
2026-05-03 20:39 28.07850 -82.03906 13621 ft 341 kts 212°
2026-05-03 20:40 28.05768 -82.05195 12956 ft 340 kts 211°
2026-05-03 20:40 28.03688 -82.06456 12293 ft 338 kts 211°
2026-05-03 20:40 28.01625 -82.07707 11641 ft 330 kts 211°
2026-05-03 20:40 27.99661 -82.08905 10985 ft 313 kts 212°
2026-05-03 20:41 27.97788 -82.10052 10332 ft 300 kts 212°
2026-05-03 20:41 27.95984 -82.11155 9667 ft 290 kts 212°
2026-05-03 20:41 27.94232 -82.12224 8972 ft 283 kts 212°
2026-05-03 20:41 27.92522 -82.13267 8387 ft 275 kts 212°
2026-05-03 20:42 27.90847 -82.14289 7910 ft 272 kts 212°
2026-05-03 20:42 27.89190 -82.15299 7548 ft 270 kts 212°
2026-05-03 20:42 27.87536 -82.16306 7190 ft 270 kts 211°
2026-05-03 20:42 27.85907 -82.17299 6854 ft 270 kts 211°
2026-05-03 20:43 27.84257 -82.18303 6497 ft 269 kts 211°
2026-05-03 20:43 27.82612 -82.19303 6125 ft 268 kts 211°
2026-05-03 20:43 27.80968 -82.20303 5748 ft 268 kts 211°
2026-05-03 20:43 27.79325 -82.21302 5377 ft 268 kts 211°
2026-05-03 20:44 27.77678 -82.22307 5044 ft 270 kts 210°
2026-05-03 20:44 27.76167 -82.23575 4684 ft 272 kts 221°
2026-05-03 20:44 27.74756 -82.25009 4367 ft 274 kts 222°
2026-05-03 20:44 27.73325 -82.26439 4048 ft 276 kts 221°
2026-05-03 20:45 27.71879 -82.27850 3727 ft 275 kts 221°
2026-05-03 20:45 27.70442 -82.29259 3419 ft 275 kts 221°
2026-05-03 20:45 27.69005 -82.30677 3086 ft 276 kts 220°
2026-05-03 20:45 27.67569 -82.32093 3003 ft 272 kts 221°
2026-05-03 20:46 27.66141 -82.33498 3012 ft 273 kts 221°
2026-05-03 20:46 27.64699 -82.34915 3025 ft 276 kts 221°
2026-05-03 20:46 27.63241 -82.36351 2999 ft 278 kts 221°
2026-05-03 20:46 27.62255 -82.37296 2988 ft 274 kts 218°
2026-05-03 20:47 27.60567 -82.38162 2989 ft 272 kts 189°
2026-05-03 20:47 27.58665 -82.38098 3026 ft 269 kts 169°
2026-05-03 20:47 27.56849 -82.37736 3035 ft 253 kts 167°
2026-05-03 20:47 27.55225 -82.37409 3006 ft 222 kts 167°
2026-05-03 20:48 27.53785 -82.37135 2996 ft 201 kts 168°
2026-05-03 20:48 27.52426 -82.36875 3004 ft 197 kts 168°
2026-05-03 20:48 27.51091 -82.36617 2999 ft 207 kts 167°
2026-05-03 20:48 27.49523 -82.36309 3025 ft 245 kts 168°
2026-05-03 20:49 27.47800 -82.35982 3034 ft 256 kts 168°
2026-05-03 20:49 27.46062 -82.35656 3023 ft 257 kts 168°
2026-05-03 20:49 27.44219 -82.35301 3026 ft 260 kts 168°
2026-05-03 20:49 27.42481 -82.34967 2927 ft 261 kts 168°
2026-05-03 20:50 27.40687 -82.34625 2675 ft 260 kts 168°
2026-05-03 20:50 27.38906 -82.34311 2408 ft 257 kts 172°
2026-05-03 20:50 27.37227 -82.34748 1976 ft 246 kts 211°
2026-05-03 20:50 27.36227 -82.36126 1985 ft 215 kts 242°
2026-05-03 20:51 27.35591 -82.37562 1987 ft 200 kts 243°
2026-05-03 20:51 27.34979 -82.38966 1990 ft 201 kts 244°
2026-05-03 20:51 27.34741 -82.40472 1881 ft 196 kts 280°
2026-05-03 20:51 27.35025 -82.41954 1813 ft 195 kts 286°
2026-05-03 20:52 27.35348 -82.43426 1740 ft 192 kts 285°
2026-05-03 20:52 27.35672 -82.44895 1630 ft 193 kts 287°
2026-05-03 20:52 27.35985 -82.46338 1471 ft 188 kts 287°
2026-05-03 20:52 27.36270 -82.47669 1374 ft 162 kts 287°
2026-05-03 20:53 27.36511 -82.48847 1196 ft 149 kts 286°
2026-05-03 20:53 27.36728 -82.49959 1002 ft 141 kts 286°
2026-05-03 20:53 27.36938 -82.51037 847 ft 140 kts 287°
2026-05-03 20:53 27.37157 -82.52121 666 ft 140 kts 288°
2026-05-03 20:54 27.37518 -82.53091 511 ft 131 kts 308°
2026-05-03 20:54 27.38732 -82.54584 93 ft 130 kts 319°
2026-05-03 20:54 27.39329 -82.55269 25 ft 100 kts 315°
2026-05-03 20:55 27.39639 -82.55621 27 ft 29 kts 314°
2026-05-03 20:55 27.39735 -82.55712 27 ft 11 kts
2026-05-03 20:55 27.39786 -82.55667 27 ft 9 kts 44°
2026-05-03 20:55 27.39798 -82.55648 27 ft 0 kts 66°
2026-05-03 20:56 27.39800 -82.55635 27 ft 3 kts 89°
2026-05-03 20:56 27.39784 -82.55611 27 ft 5 kts 134°
2026-05-03 20:56 27.39758 -82.55582 27 ft 5 kts 134°
2026-05-03 20:56 27.39725 -82.55544 27 ft 8 kts 134°
2026-05-03 20:57 27.39688 -82.55502 27 ft 6 kts 134°
2026-05-03 20:57 27.39668 -82.55479 27 ft 0 kts 134°
2026-05-03 20:58 27.39654 -82.55463 23 ft 10 kts 134°
2026-05-03 20:59 27.39601 -82.55402 27 ft 9 kts 134°
2026-05-03 20:59 27.39568 -82.55365 27 ft 3 kts 134°
2026-05-03 20:59 27.39562 -82.55357 27 ft 3 kts 134°
2026-05-03 20:59 27.39521 -82.55310 27 ft 10 kts 134°
2026-05-03 21:00 27.39472 -82.55255 26 ft 10 kts 135°
2026-05-03 21:00 27.39442 -82.55219 27 ft 10 kts 134°
2026-05-03 21:00 27.39377 -82.55146 27 ft 10 kts 135°
2026-05-03 21:00 27.39328 -82.55090 26 ft 10 kts 134°
2026-05-03 21:01 27.39280 -82.55034 26 ft 10 kts 134°
2026-05-03 21:01 27.39233 -82.54981 27 ft 9 kts 134°
2026-05-03 21:01 27.39191 -82.54928 27 ft 9 kts 120°
2026-05-03 21:01 27.39208 -82.54876 27 ft 8 kts 11°
2026-05-03 21:02 27.39259 -82.54876 27 ft 7 kts
2026-05-03 21:02 27.39309 -82.54875 27 ft 7 kts
2026-05-03 21:02 27.39347 -82.54863 27 ft 3 kts 64°
2026-05-03 21:02 27.39348 -82.54831 27 ft 5 kts 88°
2026-05-03 21:03 27.39349 -82.54793 27 ft 4 kts 88°
2026-05-03 21:03 27.39340 -82.54777 27 ft 1 kts 174°
2026-05-03 21:03 27.39332 -82.54777 27 ft 0 kts 179°